Regional Weather Roundup
Issued by NWS

Home | Current Version | Previous Version | Graphics & Text | Print | Product List | Glossary On
Versions: 1 2 3 4 5 6 7 8 9 10 11 12 13 14 15 16 17 18 19 20 21 22 23 24 25 26 27 28 29 30 31 32 33 34 35 36 37 38 39 40 41 42 43 44 45 46 47 48 49 50
000
ASUS43 KMKX 061811
RWRWI

WISCONSIN REGIONAL WEATHER ROUNDUP
NATIONAL WEATHER SERVICE MILWAUKEE/SULLIVAN WI
1200 PM CST TUE DEC 06 2016

NOTE: "FAIR" INDICATES FEW OR NO CLOUDS BELOW 12,000 FEET WITH NO
SIGNIFICANT WEATHER AND/OR OBSTRUCTIONS TO VISIBILITY.

WIZ001-002-006>008-014>016-023>028-061900-
NORTHWEST WISCONSIN

CITY           SKY/WX    TMP DP  RH WIND       PRES   REMARKS
SUPERIOR ARPT  CLOUDY    25  15  65 SW18G28   29.58S WCI  12
6HR MIN TEMP:  25; 6HR MAX TEMP:  33;

ASHLAND        CLOUDY    29  22  75 MISG      29.59S
6HR MIN TEMP:  28; 6HR MAX TEMP:  35; 6HR PCP:  0.01;

HAYWARD        CLOUDY    25  16  68 SW12      29.60F WCI  14
6HR MIN TEMP:  25; 6HR MAX TEMP:  33; 6HR PCP:  0.01;

SIREN          LGT SNOW  22  14  70 SW12G23   29.64F WCI  10
6HR MIN TEMP:  22; 6HR MAX TEMP:  31;

CUMBERLAND     CLOUDY    21  14  73 SW18G24   29.64F WCI   6
RICE LAKE      FLURRIES  22  16  77 SW10G18   29.68S WCI  12
6HR MIN TEMP:  22; 6HR MAX TEMP:  32;

CHETEK         CLOUDY    22  17  80 SW7G22    29.68S HAZE    WCI  14
6HR MIN TEMP:  22; 6HR MAX TEMP:  32; 6HR PCP:  0.01;

LADYSMITH      PTSUNNY   26  19  77 W13       29.66S WCI  15
6HR MIN TEMP:  26; 6HR MAX TEMP:  32; 6HR PCP:  0.01;

EAU CLAIRE     CLOUDY    24  18  77 SW16G29   29.70F WCI  11
6HR MIN TEMP:  24; 6HR MAX TEMP:  33; 6HR PCP:  0.02;

MENOMONIE      CLOUDY    24  17  77 SW17G23   29.72S WCI  10
6HR MIN TEMP:  24; 6HR MAX TEMP:  32;

NEW RICHMOND   FLURRIES  22  13  71 SW22G28   29.68F WCI   6
6HR MIN TEMP:  22; 6HR MAX TEMP:  29;

OSCEOLA        CLOUDY    22  13  68 SW21      29.72F WCI   7
6HR MIN TEMP:  22; 6HR MAX TEMP:  30;

$$

WIZ003>005-009-010-017-018-061900-
NORTH CENTRAL WISCONSIN

CITY           SKY/WX    TMP DP  RH WIND       PRES   REMARKS
MANITOWISH WTR LGT SNOW  29  29 100 SW13      29.56F VSB 3/4 WCI  19
6HR MIN TEMP:  29; 6HR MAX TEMP:  31;

ARBOR VITAE    LGT SNOW  32  30  92 S8        29.57F VSB 1   WCI  25
6HR MIN TEMP:  32; 6HR MAX TEMP:  32; 6HR PCP:  0.01;

WOODRUFF       LGT SNOW  32  30  92 S8        29.57F VSB 1   WCI  25
6HR MIN TEMP:  32; 6HR MAX TEMP:  32; 6HR PCP:  0.01;

RHINELANDER    SNOW      31  30  96 S10       29.60F VSB 1/4 WCI  22
6HR MIN TEMP:  30; 6HR MAX TEMP:  31; 6HR PCP:  0.03;

EAGLE RIVER    LGT SNOW  31  30  97 S7        29.59F WCI  24
6HR MIN TEMP:  30; 6HR MAX TEMP:  31;

LAND O LAKES   LGT SNOW  31  30  94 S7        29.60F WCI  24
6HR MIN TEMP:  31; 6HR MAX TEMP:  32;

PHILLIPS       CLOUDY    28  24  87 SW15G22   29.60S WCI  16
6HR MIN TEMP:  28; 6HR MAX TEMP:  31; 6HR PCP:  0.04;

TOMAHAWK       LGT SNOW  30  28  93 S3        29.61F VSB 3/4
6HR MIN TEMP:  29; 6HR MAX TEMP:  30;

MEDFORD        CLOUDY    28  23  83 SW14G20   29.63F WCI  17
6HR MIN TEMP:  28; 6HR MAX TEMP:  30;

MERRILL        LGT SNOW  31  30  97 S6        29.64F WCI  25
6HR MIN TEMP:  30; 6HR MAX TEMP:  31; 6HR PCP:  0.02;

$$

WIZ029-030-035-036-043>047-061900-
CENTRAL WISCONSIN

CITY           SKY/WX    TMP DP  RH WIND       PRES   REMARKS
WAUSAU         LGT SNOW  31  30  96 S14       29.64F VSB 1   WCI  21
6HR MIN TEMP:  30; 6HR MAX TEMP:  31; 6HR PCP:  0.03;

MOSINEE        LGT SNOW  30  30 100 S9        29.66F WCI  22
MARSHFIELD     CLOUDY    29  24  82 W17G24    29.66S WCI  17
6HR MIN TEMP:  29; 6HR MAX TEMP:  31; 6HR PCP: TRACE;

STEVENS POINT  MIX PCPN  30  30 100 S7        29.68F WCI  23
6HR MIN TEMP:  29; 6HR MAX TEMP:  30; 6HR PCP:  0.01;

WAUPACA        CLOUDY    34  32  92 S9        29.71F FOG     WCI  27
6HR MIN TEMP:  33; 6HR MAX TEMP:  34;

WAUTOMA        LGT SNOW  33  31  92 S7        29.71F FOG     WCI  27
6HR MIN TEMP:  31; 6HR MAX TEMP:  33;

WISC RAPIDS    LGT SNOW  32  31  96 W12       29.70F FOG     WCI  23
6HR MIN TEMP:  31; 6HR MAX TEMP:  33; 6HR PCP:  0.08;

CAMP DOUGLAS   PTSUNNY   32  28  86 SW9       29.71F WCI  24
                                      6HR PCP:  0.01;

$$

WIZ011>013-019>022-031-037>040-048>050-061900-
NORTHEAST WISCONSIN

CITY           SKY/WX    TMP DP  RH WIND       PRES   REMARKS
ANTIGO         LGT SNOW  30  29  99 S9        29.64F WCI  21
6HR MIN TEMP:  29; 6HR MAX TEMP:  30;

SHAWANO        CLOUDY    37  32  82 S6        29.68F WCI  32
6HR MIN TEMP:  34; 6HR MAX TEMP:  37;

OCONTO         CLOUDY    39  32  77 S7        29.68F WCI  34
6HR MIN TEMP:  38; 6HR MAX TEMP:  39;

STURGEON BAY   CLOUDY    38  32  79 SE17      29.68F WCI  28
6HR MIN TEMP:  37; 6HR MAX TEMP:  39;

GREEN BAY      CLOUDY    38  35  89 SW9       29.69F FOG     WCI  31
6HR MIN TEMP:  37; 6HR MAX TEMP:  39;

MANITOWOC      PTSUNNY   40  34  79 S12G21    29.70F WCI  33
6HR MIN TEMP:  38; 6HR MAX TEMP:  40;

APPLETON       PTSUNNY   34  32  93 SW9       29.68F WCI  26
CLINTONVILLE   CLOUDY    34  30  86 SW12      29.69F WCI  25
OSHKOSH        CLOUDY    34  31  88 SW10      29.71S FOG     WCI  26
6HR MIN TEMP:  32; 6HR MAX TEMP:  35;

$$

WIZ032>034-041-042-053>061-061900-
SOUTHWEST WISCONSIN

CITY           SKY/WX    TMP DP  RH WIND       PRES   REMARKS
LA CROSSE      PTSUNNY  N/A N/A N/A SW13      29.78S
SPARTA         MOSUNNY   30  24  77 W13G22    29.75S WCI  20
6HR MIN TEMP:  29; 6HR MAX TEMP:  32;

VIROQUA        SUNNY     27  19  72 W17G28    29.75S WCI  14
6HR MIN TEMP:  27; 6HR MAX TEMP:  32;

BOSCOBEL       MOSUNNY   33  21  61 W8        29.80S WCI  26
6HR MIN TEMP:  33; 6HR MAX TEMP:  35; 6HR PCP: TRACE;

PRAIRIE DU CHI MOSUNNY   30  21  69 W12G17    29.82F WCI  21
6HR MIN TEMP:  30; 6HR MAX TEMP:  33;

PLATTEVILLE    CLOUDY    32  29  90 W16G23    29.80S WCI  21
6HR MIN TEMP:  32; 6HR MAX TEMP:  33;

$$

WIZ056-057-062-063-064-067-068-061900-
SOUTH CENTRAL WISCONSIN

CITY           SKY/WX    TMP DP  RH WIND       PRES   REMARKS
REEDSBURG      CLOUDY    32  31  94 W12       29.74S WCI  23
6HR MIN TEMP:  31; 6HR MAX TEMP:  33;

BARABOO/DELLS  CLOUDY    32  30  92 W12       29.72F WCI  23
6HR MIN TEMP:  30; 6HR MAX TEMP:  32;

LONE ROCK      CLOUDY    33  27  78 W14       29.78S WCI  23
6HR MIN TEMP:  32; 6HR MAX TEMP:  34;

MINERAL POINT  CLOUDY    32  30  93 W17G23    29.77S WCI  21
MADISON        LGT SNOW  33  31  92 SW8       29.75S FOG     WCI  26
6HR MIN TEMP:  31; 6HR MAX TEMP:  33; 6HR PCP: TRACE;

MIDDLETON      NOT AVBL
WATERTOWN      CLOUDY    33  33 100 SW7       29.73F WCI  27
6HR MIN TEMP:  32; 6HR MAX TEMP:  33;

MONROE         CLOUDY    32  32 100 W21       29.75F FOG     WCI  20
JANESVILLE     CLOUDY    36  34  93 SW13      29.76S FOG     WCI  27
$$

WIZ051-052-058>065-066-070>072-061900-
SOUTHEAST WISCONSIN

CITY           SKY/WX    TMP DP  RH WIND       PRES   REMARKS
MILWAUKEE      CLOUDY    41  33  73 SW8       29.72F
6HR MIN TEMP:  37; 6HR MAX TEMP:  41;

WAUKESHA       CLOUDY    34  30  86 SW7       29.73F FOG     WCI  28
MILWAUKEE/TIMM CLOUDY    39  32  75 SW8       29.73F WCI  34
RACINE         CLOUDY    39  34  82 W5        29.73F
6HR MIN TEMP:  37; 6HR MAX TEMP:  41;

BURLINGTON     CLOUDY    34  33  95 W8        29.74S FOG     WCI  27
6HR MIN TEMP:  32; 6HR MAX TEMP:  35;

KENOSHA        MOSUNNY   39  33  79 SW5       29.72F
6HR MIN TEMP:  30; 6HR MAX TEMP:  39;

FOND DU LAC    CLOUDY    34  30  85 SW9       29.72F WCI  27
6HR MIN TEMP:  33; 6HR MAX TEMP:  35;

SHEBOYGAN      CLOUDY    40  34  79 S13       29.70F WCI  32
6HR MIN TEMP:  35; 6HR MAX TEMP:  40;

WEST BEND      CLOUDY    36  32  87 SW14      29.71F WCI  27
JUNEAU         CLOUDY    32  31  94 SW12      29.74F FOG     WCI  23
6HR MIN TEMP:  31; 6HR MAX TEMP:  33;

$$

LSZ147-162-061900-
LAKE SUPERIOR

STATION/POSITION TIME  TEMP    WIND        PRES    WAVE
                       AIR SEA DIR/SP/G            HT/PER
                 (UTC) (F)     (DEG/KT/KT) (MB)    (FT/S)
DEVILS ISLAND    1700   32     230/ 22/ 26 1001.7F
PORT WING        1711   28     210/ 11/ 26 1002.4R
SAXON HARBOR     1640   33     210/  9/ 14 1002.0F
$$

LMZ867-665-643>646-061900-
LAKE MICHIGAN

STATION/POSITION TIME  TEMP    WIND        PRES    WAVE
                       AIR SEA DIR/SP/G            HT/PER
                 (UTC) (F)     (DEG/KT/KT) (MB)    (FT/S)
CHAMBERS ISLAND  1640   39     150/  8/ 1C1F1C2F2C3F3C4F4C5F5C6F6C7F7C8M1C9M2Ca!


USA.gov is the U.S. government's official web portal to all federal, state and local government web resources and services.